Weather History for Galeao, Brazil

Change the Weather History Date:

Thursday, January 17, 2013

  Actual Average Record
Temperature  
Mean Temperature 66 °F -  
Max Temperature 91 °F 87 °F 100 °F (2008)
Min Temperature 42 °F 73 °F 42 °F (2013)
Cooling Degree Days 2    
Growing Degree Days 16 (Base 50)    
Moisture  
Dew Point 69 °F    
Average Humidity 74    
Maximum Humidity 94    
Minimum Humidity 10    
Precipitation  
Precipitation 0.59 in - - ()
Sea Level Pressure  
Sea Level Pressure 29.79 in    
Wind  
Wind Speed 7 mph ()    
Max Wind Speed 23 mph    
Max Gust Speed 34 mph    
Visibility 5.7 miles    
Events Rain , Thunderstorm    
Averages and records for this station are not official NWS values.
T = Trace of Precipitation, MM = Missing Value Source: Averaged Metar Reports

Daily Weather History Graph

Daily Weather History Graph

Search for Another Location

Airport:

Trip Planner

Search our weather history database for the weather conditions in past years. The results will help you decide how hot, cold, wet, or windy it might be!

Date:

Astronomy

Jan. 17, 2013 Rise Set
Actual Time 6:22 AM BRST 7:43 PM BRST
Civil Twilight 5:58 AM BRST 8:08 PM BRST
Nautical Twilight 5:28 AM BRST 8:37 PM BRST
Astronomical Twilight 4:58 AM BRST 9:07 PM BRST
Moon 11:55 AM BRST (1/17) 11:46 PM BRST (1/17)
Length of Visible Light 14h 10m
Length of Day
13h 20m
Waxing Crescent, 36% of the Moon is Illuminated
Jan 17
Waxing Crescent
Jan 18
First Quarter
Jan 27
Full
Feb 3
Last Quarter
Feb 10
New

Hourly Weather History & Observations

Time (BRST) Temp. Windchill Dew Point Humidity Pressure Visibility Wind Dir Wind Speed Gust Speed Precip Events Conditions
12:00 AM 77.0 °F - 73.4 °F 89% 29.80 in 6.2 mi WSW 5.8 mph - N/A   Scattered Clouds
1:00 AM 77 °F - 74 °F 87% 29.81 in 7 mi West 6.9 mph - -   Mist
1:00 AM 77.0 °F - 73.4 °F 89% 29.80 in 6.2 mi West 6.9 mph - N/A   Mostly Cloudy
2:00 AM 77.0 °F - 73.4 °F 89% 2.95 in 5.6 mi NW 6.9 mph - N/A Rain Light Rain
3:00 AM 77.0 °F - 73.4 °F 89% 29.77 in 6.2 mi West 10.4 mph - N/A   Mostly Cloudy
4:00 AM 73 °F - 71 °F 91% 29.79 in 4 mi WNW 15.0 mph - - Rain Rain
4:00 AM 73.4 °F - 71.6 °F 94% 29.77 in 4.3 mi WNW 15.0 mph - N/A Rain Rain
4:32 AM 71.6 °F - 69.8 °F 94% 29.77 in 4.3 mi NNW 9.2 mph - N/A Rain Light Rain
5:00 AM 71.6 °F - 69.8 °F 94% 29.77 in 6.2 mi WNW 6.9 mph - N/A Rain Light Rain
6:00 AM 71.6 °F - 69.8 °F 94% 29.80 in 6.2 mi East 3.5 mph - N/A   Mostly Cloudy
7:00 AM 73 °F - 71 °F 89% 29.80 in 12 mi Calm Calm - -   Scattered Clouds
7:00 AM 73.4 °F - 69.8 °F 88% 29.80 in 6.2 mi Calm Calm - N/A   Mostly Cloudy
8:00 AM 75.2 °F - 69.8 °F 83% 29.80 in 6.2 mi SSW 5.8 mph - N/A   Mostly Cloudy
9:00 AM 77.0 °F - 71.6 °F 83% 29.80 in 6.2 mi SSE 5.8 mph - N/A   Mostly Cloudy
10:00 AM 81 °F - 70 °F 63% 29.66 in 12 mi SSW 6.9 mph - -   Scattered Clouds
10:00 AM 80.6 °F - 69.8 °F 70% 29.65 in 6.2 mi SSW 6.9 mph - N/A   Mostly Cloudy
11:00 AM 86.0 °F - 69.8 °F 58% 29.80 in 6.2 mi NNW 4.6 mph - N/A   Mostly Cloudy
12:00 PM 89.6 °F - 66.2 °F 46% 29.77 in 6.2 mi NW 10.4 mph - N/A   Mostly Cloudy
1:00 PM 92 °F - 68 °F 35% 29.78 in 12 mi NW 10.4 mph - -   Scattered Clouds
1:00 PM 91.4 °F - 68.0 °F 46% 29.77 in 6.2 mi NW 10.4 mph - N/A   Mostly Cloudy
2:00 PM 91.4 °F - 68.0 °F 46% 29.77 in 6.2 mi NW 10.4 mph - N/A   Mostly Cloudy
3:00 PM 91.4 °F - 69.8 °F 49% 29.74 in 6.2 mi NNE 11.5 mph - N/A   Mostly Cloudy
4:00 PM 90 °F - 69 °F 41% 29.75 in 12 mi ESE 11.5 mph - -   Scattered Clouds
4:00 PM 89.6 °F - 69.8 °F 52% 29.74 in 6.2 mi ESE 11.5 mph - N/A   Mostly Cloudy
4:20 PM 84.2 °F - 75.2 °F 74% 29.77 in 2.5 mi SW 13.8 mph - N/A Rain , Thunderstorm Thunderstorms and Rain
5:00 PM 77.0 °F - 71.6 °F 83% 29.77 in 2.5 mi SW 9.2 mph - N/A Rain , Thunderstorm Thunderstorms and Rain
5:26 PM 78.8 °F - 75.2 °F 89% - 4.3 mi SSE 10.4 mph - N/A Rain , Thunderstorm Thunderstorms and Rain
6:00 PM 78.8 °F - 75.2 °F 89% 29.77 in 6.2 mi East 3.5 mph - N/A Thunderstorm Thunderstorm
7:00 PM 79 °F - 75 °F 83% 29.82 in 5 mi NNE 5.8 mph - - Rain , Thunderstorm Thunderstorms and Rain
7:00 PM 42.8 °F 39.3 °F -11.2 °F 10% 29.80 in 5.0 mi NNE 5.8 mph - N/A Rain , Thunderstorm Light Thunderstorms and Rain
7:26 PM - - - N/A% 29.83 in 1.9 mi NW 12.7 mph - N/A Rain , Thunderstorm Light Thunderstorms and Rain
8:00 PM - - - N/A% 29.83 in 2.5 mi NE 4.6 mph - N/A Rain , Thunderstorm Light Thunderstorms and Rain
9:00 PM 77.0 °F - - N/A% 29.83 in 2.5 mi North 6.9 mph - N/A   Overcast
10:00 PM 77 °F - 74 °F 87% 29.86 in 3 mi NE 4.6 mph - -   Mist
10:00 PM 77.0 °F - - N/A% 29.86 in 3.1 mi NE 4.6 mph - N/A   Overcast
11:00 PM 75.2 °F - - N/A% 29.86 in 1.9 mi SW 23.0 mph 34.5 mph N/A Rain , Thunderstorm Thunderstorms and Rain
11:26 PM 71.6 °F - 68.0 °F 88% 29.89 in 3.1 mi NW 6.9 mph 18.4 mph N/A Rain , Thunderstorm Light Thunderstorms and Rain